This demonstration page uses our WeatherBlox Daily Observations layout. Learn more.

Left ArrowRight Arrow

47.50024, -111.30081

Hourly Observations for March 16, 2015

Temp ( °F °C ) Dew Point ( °F °C ) Humidity (%) Winds ( mph kmh ) Pressure ( in mb ) Visibility ( mi km ) Precip ( " mm )
12:53 am 00:53 Partly Cloudy 55 12.8 31 -0.6 40 40 WNW 23 37 29.78 1008 10 16 0.00 0.00
1:53 am 01:53 Cloudy 44 6.7 37 2.8 76 76 NNW 25 41 29.89 1012 10 16 0.00 0.00
2:07 am 02:07 Cloudy 39 4 36 2 87 87 NW 24 39 29.97 1015 10 16 0.00 0.00
2:33 am 02:33 Cloudy 36 2 32 0 87 87 NW 14 22 30.03 1017 10 16 0.00 0.00
2:53 am 02:53 Cloudy 35 1.7 31 -0.6 85 85 NW 16 26 30.03 1017 10 16 0.00 0.03
3:14 am 03:14 Cloudy 36 2 30 -1 81 81 N 7 11 30.12 1020 10 16 0.00 0.00
3:53 am 03:53 Cloudy with Light Rain 34 1.1 31 -0.6 89 89 N 9 15 30.09 1019 10 16 0.00 0.03
4:53 am 04:53 Cloudy 32 0 29 -1.7 88 88 N 12 19 30.16 1021 10 16 0.00 0.03
5:53 am 05:53 Cloudy 31 -0.6 28 -2.2 89 89 NW 12 19 30.19 1023 10 16 0.00 0.03
6:43 am 06:43 Cloudy 30 -1 27 -3 86 86 NW 12 19 30.33 1027 10 16 0.00 0.00
6:53 am 06:53 Cloudy 30 -1.1 27 -2.8 88 88 NW 12 19 30.25 1024 10 16 0.00 0.00
7:53 am 07:53 Cloudy 30 -1.1 28 -2.2 92 92 NW 12 19 30.30 1026 9 14 0.00 0.00
8:06 am 08:06 Cloudy with Mist and Fog 30 -1 28 -2 93 93 NW 12 19 30.39 1029 2 3 0.00 0.00
8:25 am 08:25 Cloudy with Mist and Fog 30 -1 28 -2 93 93 NW 9 15 30.39 1029 2 3 0.00 0.00
8:31 am 08:31 Cloudy with Light Freezing Rain 30 -1 28 -2 93 93 NW 12 19 30.39 1029 2 3 0.00 0.03
8:53 am 08:53 Cloudy with Light Freezing Rain 29 -1.7 29 -1.7 100 100 NW 8 13 30.36 1028 2 3 0.00 0.03
9:14 am 09:14 Cloudy with Light Snow 30 -1 28 -2 93 93 NW 8 13 30.42 1030 2 2 0.00 0.00
9:53 am 09:53 Cloudy with Mist and Fog 30 -1.1 29 -1.7 96 96 NNE 7 11 30.39 1029 2 3 0.00 0.03
10:01 am 10:01 Cloudy with Mist and Fog 30 -1 30 -1 100 100 NE 7 11 30.48 1032 2 2 0.00 0.00
10:13 am 10:13 Cloudy with Mist and Fog 30 -1 28 -2 93 93 NNE 7 11 30.48 1032 3 5 0.00 0.00
10:53 am 10:53 Cloudy with Mist and Fog 30 -1.1 28 -2.2 92 92 NNE 7 11 30.40 1030 4 6 0.00 0.00
11:53 am 11:53 Cloudy 31 -0.6 28 -2.2 89 89 NNE 6 9 30.42 1030 10 16 0.00 0.00
12:53 pm 12:53 Cloudy 32 0 28 -2.2 85 85 NE 5 7 30.44 1031 10 16 0.00 0.00
1:53 pm 13:53 Cloudy 33 0.6 29 -1.7 85 85 N 7 11 30.48 1032 10 16 0.00 0.00
2:53 pm 14:53 Cloudy 35 1.7 28 -2.2 76 76 ENE 5 7 30.50 1033 10 16 0.00 0.00
3:53 pm 15:53 Cloudy 35 1.7 27 -2.8 72 72 Calm 30.50 1033 10 16 0.00 0.00
4:53 pm 16:53 Cloudy 35 1.7 27 -2.8 72 72 NE 3 6 30.51 1033 10 16 0.00 0.00
5:53 pm 17:53 Cloudy 35 1.7 28 -2.2 76 76 Calm 30.53 1034 10 16 0.00 0.00
6:53 pm 18:53 Cloudy 35 1.7 28 -2.2 76 76 Calm 30.53 1034 10 16 0.00 0.00
7:53 pm 19:53 Cloudy 35 1.7 29 -1.7 78 78 NNE 5 7 30.53 1034 10 16 0.00 0.00
8:53 pm 20:53 Cloudy 34 1.1 30 -1.1 85 85 N 3 6 30.53 1034 10 16 0.00 0.00
9:53 pm 21:53 Cloudy 34 1.1 31 -0.6 89 89 Calm 30.51 1033 10 16 0.00 0.00
10:53 pm 22:53 Cloudy 34 1.1 31 -0.6 89 89 Calm 30.50 1033 10 16 0.00 0.00
11:08 pm 23:08 Cloudy 34 1 30 -1 87 87 Calm 30.48 1032 10 16 0.00 0.00
11:32 pm 23:32 Cloudy 34 1 30 -1 87 87 Calm 30.48 1032 10 16 0.00 0.00
11:53 pm 23:53 Cloudy 34 1.1 31 -0.6 89 89 NNE 3 6 30.49 1033 10 16 0.00 0.00

Powered by AerisWeather